Regional Weather Roundup
Issued by NWS Northern Indiana

Home | Current Version | Previous Version | Graphics & Text | Print | Product List | Glossary On
Versions: 1 2 3 4 5 6 7 8 9 10 11 12 13 14 15 16 17 18 19 20 21 22 23 24 25 26 27 28 29 30 31 32 33 34 35 36 37 38 39 40 41 42 43 44 45 46 47 48 49 50
000
ASUS43 KIWX 311000
RWRIWX

KIWX WEATHER ROUNDUP
NATIONAL WEATHER SERVICE NORTHERN INDIANA
500 AM EST SAT JAN 31 2015

NOTE: "FAIR" INDICATES FEW OR NO CLOUDS BELOW 12,000 FEET WITH NO
SIGNIFICANT WEATHER AND/OR OBSTRUCTIONS TO VISIBILITY.

* THESE STATIONS ARE NOT UNDER NWS QUALITY CONTROL. THEY ALSO MAY NOT
  REPORT WEATHER SUCH AS PRECIPITATION OR FOG.

INZ001>027-311100-
NORTHERN INDIANA

CITY           SKY/WX    TMP DP  RH WIND       PRES   REMARKS
SOUTH BEND     NOT AVBL
GOSHEN         PTCLDY    18  13  80 S5        30.30F WCI  11
ANGOLA*        CLEAR     10   7  85 CALM      30.29F
FORT WAYNE     PTCLDY    16  13  88 SW7       30.33F WCI   6

$$
INZ028>050-311100-
CENTRAL INDIANA

CITY           SKY/WX    TMP DP  RH WIND       PRES   REMARKS
LAFAYETTE      MOCLDY    19  16  88 SW3       30.32F
KOKOMO*        MOCLDY    21  16  79 S8        30.32F WCI  12
MUNCIE*        CLEAR     20  15  81 S7        30.33F WCI  11
INDIANAPOLIS   CLEAR     17  14  88 S6        30.33F WCI   9

$$
MIZ043>046-050>051-056>058-064>065-071>073-077>080-311100-
SOUTHWEST LOWER MICHIGAN

CITY           SKY/WX    TMP DP  RH WIND       PRES   REMARKS
BATTLE CREEK   CLOUDY    18  12  77 S7        30.28F WCI   9
BENTON HARBOR  CLOUDY    19  15  84 S6        30.29F WCI  11
COLDWATER*     CLOUDY    16  12  85 CALM      30.29F
HILLSDALE*     MOCLDY    15  12  88 CALM      30.27F
HOLLAND        CLOUDY    20  14  77 CALM      30.26F
GRAND RAPIDS   CLOUDY    20  14  77 S12       30.25F WCI   8
KALAMAZOO      CLOUDY    16  12  84 S5        30.28F WCI   9
STURGIS*       CLEAR     16  12  86 CALM      30.29S
THREE RIVERS*  MOCLDY    15  12  89 S3        30.30F

$$
OHZ001>008-015>018-024>025-311100-
NORTHWEST OHIO

CITY           SKY/WX    TMP DP  RH WIND       PRES   REMARKS
DEFIANCE       CLEAR     17  11  77 CALM      30.34F
FINDLAY        CLEAR     12   6  77 S8        30.33F WCI   0
TOLEDO EXPRESS MOCLDY    12   9  87 CALM      30.34S
TOLEDO METCALF PTCLDY    17  10  74 SW5       30.36S WCI  10
LIMA           CLEAR     15   9  76 S8        30.32F WCI   4

$$
AND FOR LAKE MICHIGAN COASTAL AND OPEN LAKE BUOY OBSERVATIONS

STATION/POSITION TEMP    WIND        PRES    VSBY  WAVE
                 AIR SEA DIR/SP/G                  HT/PER
                 (F)     (DEG/KT/KT) (MB)    (MI)  (FT/S)
CALUMET HARBOR    27     200/  6/ 10   N/A
MICHIGAN CITY     24     160/ 10/ 13   N/A
SAINT JOSEPH      22     130/  5/  9 1025.7F

$$
&&



USA.gov is the U.S. government's official web portal to all federal, state and local government web resources and services.